Regional Weather Roundup
Issued by NWS Albany, NY

Home | Current Version | Previous Version | Text Only | Print | Product List | Glossary Off
Versions: 1 2 3 4 5 6 7 8 9 10 11 12 13 14 15 16 17 18 19 20 21 22 23 24 25 26 27 28 29 30 31 32 33 34 35 36 37 38 39 40 41 42 43 44 45 46 47 48 49 50

916
ASUS41 KALY 130010
RWRALY

NEW YORK STATE HOURLY WEATHER ROUNDUP
NATIONAL WEATHER SERVICE ALBANY NY
700 PM EST FRI FEB 12 2016

NOTE: "FAIR" INDICATES FEW OR NO CLOUDS BELOW 12,000 FEET WITH NO
SIGNIFICANT WEATHER AND/OR NO OBSTRUCTIONS TO VISIBILITY.

NYZ032-033-038>043-046>054-057>066-NYZ062>081-130100-
EAST


CITY           SKY/WX    TMP DP  RH WIND       PRES   REMARKS
ALBANY         PTCLDY    23   2  40 S6        29.93F WCI  16
GLENS FALLS    MOCLDY    21   2  43 S8        29.90F WCI  11
POUGHKEEPSIE   CLOUDY    24   6  46 SW6       29.98F WCI  17
NEWBURGH       CLOUDY    23   7  50 W9        29.97S WCI  13
MONTGOMERY     CLOUDY    21   2  43 SW8       29.95F WCI  11
WHITE PLAINS   CLOUDY    21   5  50 W6        29.96F WCI  13
ISLIP          FLURRIES  24  11  57 SW9       29.99F WCI  14
NEW YORK CITY  CLOUDY    25   4  40 SW9       30.00F WCI  15
CENTRAL PARK   CLOUDY    24   4  42 VRB5      30.01F WCI  18
$$

NYZ005>009-017-018-044>046-055-056-130100-
CENTRAL


CITY           SKY/WX    TMP DP  RH WIND       PRES   REMARKS
FULTON         CLOUDY    24   7  48 S10       29.83F WCI  14
SYRACUSE       PTCLDY    19   5  54 S13       29.85F WCI   6
ROME           CLOUDY    19   4  51 S8        29.89S WCI   9
ELMIRA         CLOUDY    19   9  65 SW8       29.87F WCI   9
BINGHAMTON     LGT SNOW  14   7  73 SW6       29.82S WCI   5
MONTICELLO     PTCLDY    14  10  85 CALM      29.88F
$$

NYZ026>034-041>043-130100-
NORTH


CITY           SKY/WX    TMP DP  RH WIND       PRES   REMARKS
WATERTOWN      LGT SNOW  22  12  65 S8        29.80F WCI  12
FORT DRUM      NOT AVBL
MASSENA        LGT SNOW  20  16  84 S15       29.79F FOG     WCI   6
SARANAC LAKE   CLOUDY    14   3  61 S15G24    29.69F WCI  -1
PLATTSBURGH    CLEAR     19   5  54 S13       29.83F WCI   6
$$

NYZ001>004-010>016-019>021-130100-
WEST


CITY           SKY/WX    TMP DP  RH WIND       PRES   REMARKS
NIAGARA FALLS  PTCLDY    19   8  62 W17       29.85R WCI   4
BUFFALO        MOCLDY    20  11  68 W10       29.85S WCI   9
DUNKIRK        LGT SNOW  19  17  92 W9        29.88R FOG     WCI   8
JAMESTOWN      CLOUDY    16  10  79 SW9       29.78S WCI   4
WELLSVILLE     PTCLDY    13   6  74 SW12G17   29.77F WCI  -1
ROCHESTER      SNOW      20  17  88 SW16      29.85F VSB 1/2 WCI   6
PENN YAN       PTCLDY    20   6  55 S14       29.84S WCI   7
$$

             KEY
       WCI = WIND CHILL INDEX
       VSB = VISIBILITY
       HX  = HEAT INDEX
$$




USA.gov is the U.S. government's official web portal to all federal, state and local government web resources and services.